GFSWCAN_850_thetae_021.txt.gz
Theta_e
308 307 307 308 309 309 309 309 308 300 295 293 295 296 303 305 304 304 304 303 301 300 301 302 301 303 305 306 306 307 306 306 303 304 306 307 309 312 313 312 311 312 312 315 314 315 316 310 308 319 319 318 320 319
306 306 307 309 308 308 308 307 304 294 293 293 294 297 299 302 303 304 303 303 302 301 302 303 301 300 300 305 305 307 308 306 306 305 305 307 309 310 311 313 308 311 310 311 311 312 307 304 307 312 317 318 317 318
306 307 307 308 308 308 306 303 296 293 293 293 293 299 300 300 301 302 303 303 302 300 301 303 306 306 307 307 308 308 308 307 305 306 306 307 308 308 311 311 309 309 309 310 312 306 306 311 315 316 316 318 317 317
306 307 307 307 307 306 300 295 293 293 292 293 293 296 299 301 301 301 302 303 302 301 301 304 306 305 307 309 308 310 310 308 307 305 306 307 308 308 311 310 311 311 311 313 309 309 310 313 314 315 316 317 316 316
307 307 307 307 305 299 293 292 292 292 292 293 293 296 301 301 300 303 304 304 303 302 304 304 305 310 307 310 309 310 309 309 308 305 307 308 308 312 309 309 311 311 312 313 312 312 313 313 315 314 313 314 314 314
306 306 304 303 299 293 291 291 292 292 292 293 293 294 297 298 299 302 303 308 306 303 302 305 306 305 308 309 310 310 309 309 309 307 307 307 309 311 308 309 310 312 312 311 312 312 313 313 314 314 313 312 313 313
305 298 292 291 291 291 291 291 291 292 292 293 294 296 297 301 303 303 304 307 305 303 304 306 302 306 308 310 309 309 309 309 309 309 309 308 309 310 306 310 311 312 312 311 312 312 312 311 311 313 313 310 311 314
296 293 291 291 291 291 291 291 291 292 292 293 299 303 305 306 306 306 308 305 305 304 306 305 304 305 310 311 311 311 310 309 311 311 310 308 309 307 308 309 312 311 311 311 311 311 310 310 310 310 310 310 310 310
292 291 291 291 290 291 291 291 291 292 292 295 301 307 307 306 306 307 308 308 307 307 307 306 304 301 309 311 311 311 311 310 310 310 307 308 305 306 308 310 310 310 310 311 311 311 310 309 309 309 309 309 309 309
291 291 290 290 290 290 291 291 292 292 293 299 306 308 309 305 305 307 308 308 308 308 307 307 306 303 308 310 310 309 309 309 311 307 309 302 304 310 311 311 310 310 310 309 309 310 309 309 309 309 309 308 307 305
290 290 290 290 290 290 292 296 294 294 293 295 299 303 305 305 305 307 308 307 306 307 306 306 305 304 306 307 306 309 302 304 305 308 309 306 305 309 311 311 311 310 310 309 308 309 309 309 309 309 308 307 307 306
290 290 290 290 290 292 295 294 295 295 294 293 296 300 302 303 305 307 308 309 308 307 307 306 307 306 307 310 306 305 304 302 309 306 309 305 307 311 311 310 310 309 309 309 308 309 310 310 309 308 308 307 307 306
290 290 290 290 290 292 293 294 293 291 291 298 301 302 303 304 305 308 305 306 311 311 312 311 312 310 309 311 307 302 305 304 304 301 308 306 310 311 311 310 309 309 309 309 308 309 309 308 308 308 308 307 307 305
290 290 290 290 292 293 293 292 291 290 291 299 303 304 304 302 303 304 305 307 309 310 310 310 310 311 310 307 306 309 306 303 302 305 305 307 311 312 311 310 309 309 309 309 309 308 307 307 306 306 306 307 306 303
290 290 290 291 293 294 293 291 291 290 292 297 302 303 303 304 304 306 307 308 306 306 307 309 310 310 307 310 307 305 309 304 303 303 300 310 312 311 311 311 311 310 309 309 309 308 308 307 307 307 306 306 305 303
289 290 292 293 291 290 290 291 291 294 295 297 298 302 304 303 303 304 304 304 304 304 305 310 309 310 310 308 309 309 304 303 303 301 309 312 312 312 311 310 311 310 309 309 309 309 308 308 307 307 306 305 303 303
289 290 290 290 290 290 291 292 292 296 298 299 301 302 302 303 303 304 304 302 303 304 305 308 310 311 309 308 308 304 303 303 306 308 310 311 312 311 311 310 311 310 309 309 308 308 308 308 307 307 306 305 301 302
290 290 290 290 292 292 293 294 295 299 300 301 300 300 301 302 301 301 301 301 302 304 306 309 310 311 311 309 307 308 309 310 308 308 309 311 311 311 311 311 311 310 310 309 308 308 308 307 306 307 306 305 303 301
290 290 291 291 292 292 293 294 297 298 299 300 300 300 300 299 300 300 301 302 302 303 304 308 309 311 309 307 307 309 310 310 311 311 310 310 311 311 311 310 310 310 309 309 308 308 308 307 307 307 306 306 305 301
291 291 291 292 292 292 294 294 295 297 299 300 300 299 299 299 300 300 300 298 299 302 304 307 306 308 310 310 310 310 310 311 310 311 311 311 311 311 310 310 309 310 309 309 308 308 308 307 307 306 306 306 305 303
291 291 291 291 291 291 292 293 294 296 297 298 299 297 297 296 296 297 297 300 300 301 301 305 305 304 305 305 305 307 311 311 310 310 311 311 311 311 311 310 310 310 310 309 308 308 308 308 307 306 306 305 305 303
291 292 292 292 291 292 292 292 293 293 295 295 295 295 296 296 298 299 299 299 300 302 303 304 304 306 308 308 308 308 308 309 310 311 311 311 311 311 311 311 310 310 310 309 309 308 308 307 307 306 306 305 304 302
291 291 292 292 292 293 293 293 294 295 296 296 296 296 296 297 298 298 299 300 302 301 301 302 303 305 307 308 310 310 310 309 310 311 311 311 311 310 311 311 310 310 309 309 309 308 308 307 306 306 305 305 303 302
291 292 292 292 293 292 293 293 294 295 295 295 292 295 296 296 297 298 300 301 301 300 300 301 301 304 307 308 309 310 309 310 310 310 311 311 311 310 311 311 311 309 310 310 309 309 308 307 306 305 305 304 302 301
292 292 291 291 292 294 294 294 295 293 293 293 294 294 298 298 298 299 301 299 299 300 299 299 301 302 303 305 306 308 308 309 309 310 311 311 310 310 310 310 310 310 310 310 308 308 308 307 306 305 304 304 302 300
290 292 291 293 293 294 294 294 291 290 293 293 294 296 297 298 300 301 300 299 299 299 300 299 299 300 302 304 305 306 307 308 308 309 310 310 310 310 310 310 310 310 309 309 309 308 308 307 306 305 304 303 301 300
289 289 292 293 293 293 293 293 293 290 293 295 296 296 296 297 300 299 297 295 295 298 298 299 299 299 300 300 302 304 307 308 309 309 310 310 310 310 310 310 310 310 309 309 308 308 307 306 305 305 304 302 299 298
292 292 293 293 293 293 294 293 293 293 294 294 295 297 298 299 295 292 292 293 295 297 298 298 299 299 300 299 300 301 303 306 308 309 310 309 310 310 310 310 309 309 309 309 308 307 306 306 305 304 303 301 298 297
292 292 293 293 294 294 294 293 293 293 293 294 295 296 297 291 290 290 291 292 293 295 296 296 297 298 299 300 300 300 300 303 304 305 307 307 308 309 309 309 308 308 307 308 308 307 306 306 305 304 302 300 297 296
293 293 293 294 295 295 294 294 294 294 294 294 294 295 293 290 290 291 291 291 291 292 293 294 295 295 295 298 300 300 300 300 300 301 303 304 304 303 305 308 308 307 307 306 306 305 305 304 303 302 300 298 296 294
294 295 295 295 296 296 297 297 297 297 297 296 296 295 293 291 290 289 291 291 291 291 292 292 293 293 294 294 296 298 299 299 299 300 301 303 303 303 302 302 303 303 303 304 304 303 303 302 302 301 299 297 295 295
296 296 297 297 297 298 298 298 298 297 296 294 293 295 292 290 288 288 288 290 290 290 290 291 291 291 292 293 294 293 294 296 298 298 299 300 302 302 303 301 302 303 304 305 305 303 302 302 301 300 298 296 296 295
296 297 297 297 296 298 298 298 298 295 293 291 290 291 289 288 287 287 287 288 289 289 290 290 290 291 291 291 292 292 293 293 294 295 296 297 298 299 301 301 302 300 300 300 301 300 300 299 298 296 295 294 294 293

GFSWCAN_850_thetae_024.txt.gz
Theta_e
306 307 306 306 306 306 308 307 307 305 302 296 293 293 298 299 300 303 303 303 303 301 302 302 302 301 301 303 305 305 306 303 303 305 306 306 307 309 311 311 310 312 311 312 312 312 312 307 307 314 315 316 319 318
305 306 306 306 307 307 307 306 302 294 292 293 296 293 294 299 301 301 302 302 303 302 302 303 302 302 302 302 303 304 307 306 306 305 303 307 308 309 310 313 307 311 307 310 310 311 306 302 302 305 308 307 318 318
306 307 307 307 306 306 306 304 297 292 292 292 295 292 293 297 299 301 301 301 301 302 302 302 304 305 306 306 305 303 307 307 305 306 306 307 307 307 310 311 308 308 308 308 308 304 302 305 315 312 314 316 316 316
307 307 306 306 306 305 304 300 294 292 291 291 292 293 293 296 301 301 300 300 302 301 301 302 305 304 305 305 306 306 306 307 306 306 306 307 308 308 311 311 311 311 311 312 309 307 311 312 314 314 314 314 314 315
306 306 306 305 299 293 292 291 291 291 291 291 292 292 293 294 297 298 300 302 301 302 302 303 304 306 305 307 307 307 306 306 307 306 306 308 307 310 308 307 312 311 312 313 311 312 312 311 313 313 314 313 313 315
306 305 304 299 293 292 291 291 291 291 291 291 291 292 296 297 296 299 303 307 307 302 301 304 305 306 306 308 309 308 308 308 308 307 307 307 308 310 308 308 309 311 311 310 311 311 310 310 312 312 312 313 314 313
304 303 297 293 291 291 291 291 291 291 292 292 292 294 300 302 302 301 303 304 305 302 301 305 302 305 307 308 309 309 308 308 308 309 309 306 308 310 307 308 309 311 310 311 310 310 310 310 311 310 310 310 311 311
297 292 291 291 291 291 291 291 291 292 292 292 294 299 302 304 304 304 306 305 303 303 304 306 303 303 308 310 310 309 310 309 309 310 309 307 307 305 307 307 310 310 310 310 310 309 309 309 308 308 308 309 308 309
291 291 291 291 291 291 291 291 294 293 293 293 298 307 307 306 305 307 307 308 305 305 307 306 303 300 307 310 310 310 310 311 309 311 307 307 304 305 306 309 309 309 309 309 309 309 309 309 308 307 305 304 305 307
291 291 291 290 290 291 291 294 294 293 293 294 302 305 307 305 305 306 308 307 304 303 306 308 306 303 306 308 307 308 309 308 310 306 308 301 303 308 310 310 309 310 310 308 309 309 309 308 308 306 305 303 303 304
291 290 290 290 290 290 291 293 293 293 292 292 292 300 303 304 303 306 308 307 306 305 305 305 305 305 306 303 302 307 303 303 305 305 308 304 303 307 311 310 310 310 309 308 309 309 309 308 307 307 305 303 302 303
290 289 290 290 290 290 291 294 293 292 290 290 293 298 300 302 304 306 306 307 307 306 306 306 307 305 306 306 306 305 304 302 309 304 307 307 306 310 311 310 309 309 309 308 309 309 309 308 307 307 305 302 301 302
289 289 290 290 290 291 293 293 292 291 291 296 299 300 302 303 299 305 304 306 310 310 310 309 308 310 308 308 306 301 306 304 303 301 307 305 308 310 310 310 309 309 308 308 309 308 306 306 306 306 305 302 301 301
289 290 290 290 291 291 293 292 291 291 290 295 300 301 303 300 301 301 303 305 308 308 307 307 309 310 310 308 305 309 305 301 300 303 304 304 310 311 310 309 309 309 309 308 308 307 306 306 306 306 304 302 301 301
289 290 290 291 291 291 290 290 291 291 291 293 298 299 300 302 302 304 305 306 304 304 303 303 308 309 308 310 307 304 308 304 302 302 299 308 311 311 311 309 309 309 309 309 308 307 306 306 306 305 303 302 300 300
289 290 290 290 290 290 290 291 291 291 295 293 295 298 301 302 302 303 302 303 302 302 303 306 307 308 310 307 307 309 305 303 301 298 307 309 311 311 311 311 310 309 308 308 308 307 307 306 306 305 302 301 300 300
289 289 289 290 290 290 291 292 292 294 295 297 297 299 299 300 301 301 303 301 300 301 301 305 308 309 307 309 310 305 303 300 305 307 308 310 311 311 311 310 310 310 309 308 308 308 307 307 306 305 303 301 300 299
289 289 290 290 290 291 292 293 294 296 297 298 298 299 300 301 301 300 299 299 300 302 304 305 309 310 309 309 306 305 307 309 309 310 307 308 311 311 311 311 310 310 309 308 308 308 308 307 306 306 304 302 300 299
289 290 290 290 291 292 292 293 294 295 297 298 298 298 298 298 298 298 299 300 300 298 302 304 304 304 306 307 306 308 310 310 310 310 310 309 310 311 311 310 310 310 310 309 308 308 308 307 306 306 305 303 301 300
290 290 291 291 291 291 292 293 294 295 296 297 297 298 297 297 298 298 296 296 296 298 303 303 303 305 307 306 306 304 305 306 308 311 311 311 310 310 311 311 310 310 310 309 309 308 308 307 306 306 305 304 303 302
291 291 291 291 292 291 291 292 293 294 295 296 296 295 294 294 295 295 297 298 298 299 299 301 303 303 304 306 304 306 307 307 307 310 310 311 310 311 311 311 310 310 310 309 309 308 308 308 307 306 306 305 304 302
291 291 291 291 292 291 292 292 292 292 292 293 294 295 295 295 296 296 298 298 298 301 300 301 301 301 303 305 307 308 309 309 308 308 309 310 310 310 311 311 310 310 309 309 309 309 308 308 307 306 306 305 304 301
291 290 291 291 292 292 292 292 293 293 294 294 294 293 294 295 297 297 297 299 301 300 300 300 300 301 302 304 306 307 307 308 309 309 308 309 310 310 310 310 311 310 310 310 309 309 308 308 307 306 306 305 304 301
290 291 291 291 291 291 293 293 293 294 294 293 293 293 294 296 297 297 299 300 300 299 300 299 300 301 302 303 304 305 306 307 308 309 309 309 310 310 310 310 310 311 310 310 309 309 309 308 307 306 306 305 303 301
291 291 290 290 291 292 293 293 294 291 293 293 293 294 295 296 298 300 301 295 295 296 297 298 298 299 299 300 301 302 302 303 305 307 309 309 310 310 310 310 310 311 310 309 309 309 309 308 307 306 306 305 303 300
288 290 289 291 293 293 293 293 292 290 292 293 294 294 296 297 299 300 297 293 293 293 295 296 297 298 298 299 299 300 300 301 304 306 308 308 309 310 310 310 310 310 310 309 310 309 309 308 307 306 305 304 303 301
289 287 291 292 292 293 293 292 292 291 292 294 295 295 296 297 295 293 292 292 292 293 294 295 296 296 296 298 298 298 300 302 305 306 308 308 309 310 310 310 310 310 310 310 310 310 309 308 307 306 305 304 303 301
291 291 292 293 293 293 294 293 293 292 293 293 294 296 297 294 291 290 291 291 292 294 295 295 296 296 296 297 297 298 300 303 304 305 307 308 309 309 309 309 310 310 310 310 310 309 309 308 308 306 305 304 303 301
291 292 292 292 293 293 293 293 293 293 293 293 294 295 294 289 289 289 291 291 292 292 293 293 293 295 297 298 297 297 298 300 300 301 301 301 304 307 309 309 309 309 309 309 309 309 308 308 307 306 305 304 303 299
292 293 293 293 294 295 295 294 294 294 294 294 294 292 289 289 289 290 290 290 290 291 291 292 292 292 292 294 296 297 296 297 297 298 298 299 299 299 302 307 307 307 308 308 307 306 305 306 305 305 304 302 300 297
293 294 294 295 294 296 296 297 297 297 296 295 295 295 290 290 288 288 289 289 290 290 290 290 290 290 290 291 291 292 293 295 296 297 297 298 300 300 300 300 304 305 305 306 306 308 307 306 306 304 302 300 298 296
295 295 296 296 296 296 297 298 297 295 294 293 292 293 291 289 287 287 286 288 288 288 289 289 289 289 290 290 291 292 292 293 294 295 296 297 298 299 301 301 302 302 302 303 303 304 304 303 302 301 299 297 295 294
295 295 295 295 295 296 296 296 297 293 291 290 289 289 288 287 286 286 285 286 287 287 288 288 289 289 289 290 289 289 290 291 292 293 294 295 296 296 296 297 299 300 301 300 300 301 303 302 300 299 299 297 294 293

GFSWCAN_850_thetae_030.txt.gz
Theta_e
307 305 306 306 306 306 306 305 300 293 292 292 292 291 291 295 298 298 299 301 300 301 302 302 303 303 304 303 304 305 307 310 310 312 312 311 313 312 312 312 312 313 314 316 314 314 316 309 308 313 314 316 315 316
306 306 306 306 306 305 305 303 295 292 291 291 291 291 291 292 296 298 299 301 302 301 301 302 302 302 303 303 303 303 306 306 308 310 310 312 313 311 312 317 308 314 309 312 311 313 308 306 304 304 308 312 312 314
306 307 306 306 305 304 303 299 293 292 292 291 291 291 291 292 293 297 298 299 301 301 302 304 306 306 305 305 305 304 305 308 308 306 306 309 312 311 315 314 312 311 308 309 309 310 307 307 311 308 306 308 310 312
307 306 306 305 303 298 293 292 292 292 292 292 292 292 292 292 292 295 297 299 301 301 302 305 305 306 306 305 305 305 306 307 307 306 307 308 311 310 313 313 314 312 312 312 312 312 310 310 309 311 312 312 312 317
306 306 305 303 296 292 293 292 292 292 292 292 293 294 293 293 293 296 298 299 299 300 303 304 304 307 306 306 306 305 306 305 304 306 308 309 310 311 313 314 314 312 312 313 313 312 310 311 309 309 311 311 311 313
306 305 304 303 294 293 293 292 292 292 292 293 293 293 293 293 293 299 302 304 304 300 300 305 307 307 308 308 309 306 305 304 303 308 309 309 311 310 314 315 313 311 311 310 311 310 310 309 306 305 307 310 310 311
305 304 304 299 293 293 292 292 292 292 292 292 293 293 294 297 298 299 304 304 303 302 301 304 306 309 307 309 310 306 305 306 305 308 310 311 311 309 314 314 312 311 311 309 310 309 309 309 306 306 307 309 309 310
304 303 301 293 293 292 291 291 291 292 292 293 293 293 300 305 304 303 303 303 302 301 302 305 308 310 308 312 313 310 310 307 308 310 312 313 312 312 315 313 311 310 310 309 308 310 309 308 306 305 308 309 309 308
303 303 297 293 291 291 291 291 291 292 293 294 293 298 303 304 304 305 305 306 305 302 303 306 308 312 308 310 312 310 310 312 310 312 312 311 314 315 314 312 311 310 310 310 309 308 307 307 305 305 307 308 310 306
302 297 293 291 291 291 291 291 291 292 293 293 293 302 306 305 304 303 304 303 301 301 302 306 307 310 308 310 311 313 312 314 315 313 312 314 316 314 312 311 311 310 310 310 309 308 307 306 304 304 305 306 307 305
296 292 291 290 290 290 290 291 292 292 293 294 296 297 298 300 303 305 306 306 303 305 304 306 307 308 308 310 312 310 314 313 314 315 314 315 316 314 312 311 311 311 311 310 309 307 307 305 303 304 304 305 305 304
292 291 290 290 290 290 291 291 291 292 294 293 293 294 297 300 303 305 307 307 308 308 308 309 308 306 306 308 311 313 314 313 313 311 314 314 314 313 311 311 311 311 311 310 308 307 306 304 303 303 303 303 304 304
290 290 290 290 290 291 290 290 290 290 291 295 297 297 300 303 304 303 305 306 309 310 306 306 310 310 307 306 310 312 314 314 311 313 313 313 314 313 311 311 311 311 311 310 309 308 306 303 302 303 303 302 302 302
290 290 290 290 290 290 290 290 290 291 292 295 298 302 302 303 302 305 306 308 307 306 306 305 306 308 308 304 305 311 313 312 314 314 312 312 313 313 312 311 311 311 311 310 309 308 306 303 302 302 302 302 301 301
290 290 290 290 290 290 290 290 290 291 295 295 297 299 302 302 302 303 301 302 303 303 302 302 304 307 310 308 308 312 314 315 315 314 314 311 312 314 312 311 311 311 311 310 309 308 307 304 303 302 302 302 301 301
290 290 290 289 290 290 291 291 292 292 295 295 296 298 298 298 299 300 302 302 300 300 301 302 305 308 312 312 312 314 314 316 315 314 312 311 313 314 313 312 311 311 311 310 310 309 308 305 303 302 302 301 301 300
289 289 289 290 290 290 291 292 293 294 295 296 298 297 298 298 298 298 299 299 299 300 302 304 307 309 311 311 313 313 314 314 312 312 312 312 312 313 313 312 312 311 311 310 310 309 308 306 304 303 302 301 301 300
289 289 290 290 291 292 293 294 294 295 296 297 297 296 296 296 296 296 297 298 298 299 301 303 304 307 308 309 310 312 311 310 310 310 310 311 312 313 313 312 311 311 311 311 310 310 309 308 306 304 302 301 300 301
290 290 290 291 291 293 293 294 295 296 296 295 296 295 296 296 296 296 296 296 297 299 299 301 304 304 305 307 307 308 308 308 308 309 310 311 312 312 313 313 312 312 311 311 311 310 309 309 308 305 304 303 302 301
290 291 290 290 291 293 293 294 294 295 295 295 295 296 295 296 296 296 296 297 298 298 299 300 302 304 305 304 304 305 305 306 307 308 309 309 311 312 312 313 313 313 312 311 311 310 310 309 308 306 305 304 302 301
291 291 291 292 293 293 293 294 294 294 294 295 295 295 295 296 296 297 298 297 299 300 300 301 301 302 302 303 304 304 305 306 306 307 308 309 309 311 312 311 313 313 312 311 310 310 310 309 308 307 304 305 302 301
292 291 293 292 293 293 294 294 294 294 294 295 296 295 296 297 297 298 298 299 299 294 296 296 297 298 300 302 302 303 303 303 304 306 307 308 310 310 310 311 312 312 312 312 311 311 310 310 309 307 306 304 302 299
291 291 293 293 293 293 293 294 295 295 296 296 296 296 296 296 297 296 297 294 294 294 294 294 296 297 299 299 300 300 300 300 302 303 304 305 307 309 310 310 310 312 312 312 312 311 310 310 308 307 305 304 302 299
291 292 293 293 294 294 294 295 295 295 296 296 297 297 297 296 296 298 297 295 294 293 293 293 294 295 296 297 297 297 297 297 298 299 302 303 304 306 308 310 311 311 312 313 312 311 311 309 308 307 305 304 302 300
292 291 292 291 293 294 295 295 295 295 296 296 296 297 297 297 300 297 296 294 293 292 292 292 293 293 294 294 294 295 295 294 294 296 298 300 302 304 306 310 312 312 312 312 312 311 310 309 307 307 305 305 303 301
292 291 293 294 295 296 296 296 295 295 296 296 296 297 297 299 297 297 295 293 291 291 291 291 291 292 293 292 292 293 294 294 295 297 300 300 302 302 304 305 310 312 312 312 312 310 309 308 308 307 306 304 304 302
293 294 294 294 295 295 295 295 295 295 295 296 297 297 298 297 296 294 292 291 290 291 291 290 291 291 291 292 293 295 296 296 295 297 300 301 300 301 302 303 306 310 311 311 311 310 310 309 307 306 307 305 303 302
294 294 296 295 295 295 295 295 295 296 296 295 296 298 296 295 294 291 291 289 290 290 290 291 290 290 291 291 292 293 295 296 298 298 299 299 300 300 302 304 305 306 308 309 311 311 310 309 308 307 307 304 303 302
294 294 294 294 294 294 295 296 296 296 295 295 297 296 293 291 289 289 289 289 289 289 290 290 290 290 290 291 291 291 292 292 293 293 294 295 297 299 300 301 304 305 306 307 308 309 309 308 307 306 309 307 302 301
294 295 296 296 296 297 297 297 297 297 295 295 295 293 291 289 288 289 289 289 289 289 289 289 289 288 288 288 289 289 289 291 291 291 291 292 293 296 298 299 300 303 305 306 307 307 307 307 306 305 306 307 302 300
295 295 296 296 297 297 297 297 297 296 296 295 294 294 292 289 288 287 287 288 288 288 287 287 288 287 287 287 287 287 287 287 288 290 292 293 294 295 296 297 298 299 301 302 304 306 306 306 305 306 306 305 303 303
296 296 296 296 297 297 297 297 296 296 295 295 294 292 291 292 290 287 285 285 286 285 285 285 286 287 285 285 285 285 285 285 286 287 288 290 292 293 295 296 296 298 298 300 300 300 301 303 303 303 303 304 303 301
296 296 295 296 296 297 297 296 295 295 294 294 293 292 292 291 289 286 285 284 284 284 284 285 286 285 285 284 284 284 285 285 285 285 286 287 289 291 292 294 295 296 296 297 298 297 298 300 300 299 298 298 297 295

GFSWCAN_850_thetae_033.txt.gz
Theta_e
308 307 307 307 307 306 305 304 303 298 293 292 292 292 291 292 292 298 302 303 303 304 304 304 305 305 305 305 306 306 308 311 312 314 313 314 315 314 315 314 319 315 316 318 316 316 316 311 310 313 314 314 314 316
307 307 307 307 306 305 302 298 293 293 292 292 292 292 292 292 292 295 298 301 303 303 303 303 303 304 304 305 305 305 307 307 310 313 312 314 315 314 315 316 311 315 313 313 311 314 312 309 308 306 305 306 309 314
306 308 307 306 305 303 296 293 293 293 292 292 292 292 293 295 295 296 298 299 301 302 302 306 309 308 308 307 306 305 306 307 309 307 308 309 314 313 316 316 316 312 311 308 310 312 310 310 308 309 311 313 311 312
308 308 307 306 305 303 295 294 294 293 292 292 292 293 295 297 297 297 298 300 301 301 303 308 308 308 308 307 307 307 307 309 308 307 307 309 311 311 315 315 315 315 313 313 312 310 311 310 307 307 311 313 312 314
308 307 306 305 304 303 294 295 293 293 292 292 292 293 293 293 293 295 298 299 300 300 305 305 305 309 309 309 309 308 307 308 308 306 308 310 310 312 314 315 316 313 313 313 312 310 310 308 306 307 309 311 311 313
308 307 306 305 304 296 294 294 293 293 292 292 293 293 293 292 293 298 302 304 303 301 300 305 308 308 310 311 310 309 308 308 306 306 308 310 311 313 315 316 313 311 311 309 310 309 309 307 306 306 308 310 309 312
307 306 305 304 301 295 294 293 292 292 292 293 293 293 293 294 298 301 305 304 304 303 301 304 308 310 311 311 311 311 309 307 306 305 308 312 313 313 315 316 313 310 311 310 309 309 308 307 307 308 310 310 308 310
306 305 304 303 297 294 292 292 292 293 293 293 293 293 294 302 304 303 303 302 302 302 302 306 309 310 311 312 313 311 310 308 308 308 310 314 314 314 315 314 311 311 310 311 308 308 308 306 307 308 308 310 308 308
305 304 303 297 293 292 292 292 292 293 293 293 293 296 303 304 303 304 305 303 303 303 303 305 309 312 311 311 313 313 312 312 311 311 313 314 315 316 316 313 312 311 310 310 307 307 306 305 307 307 307 308 306 306
304 303 298 292 291 291 291 292 292 292 293 294 298 302 307 305 304 303 303 303 302 301 301 304 307 310 309 310 312 314 314 315 316 315 313 316 316 316 314 312 311 311 310 309 307 307 306 305 306 307 307 306 305 306
303 301 293 291 291 291 291 291 292 292 297 298 298 300 300 297 300 305 306 306 304 305 303 306 307 309 309 311 313 312 314 316 316 317 315 317 317 316 313 312 311 311 310 309 308 306 304 304 305 306 307 306 305 304
303 296 291 291 291 291 291 291 291 294 295 293 295 296 298 301 303 305 308 308 310 310 310 311 310 309 309 308 311 313 315 315 315 313 314 317 315 313 312 312 311 311 310 309 308 305 304 303 305 305 305 306 304 304
300 292 291 291 291 291 290 291 291 290 291 298 298 299 301 304 305 306 307 308 311 307 306 308 309 309 310 308 310 313 315 316 314 315 314 314 314 313 312 312 312 311 310 310 308 305 304 303 304 304 304 304 305 304
293 291 291 291 291 290 290 290 291 291 297 299 299 305 303 304 305 306 307 306 306 306 305 306 307 309 309 306 306 309 314 315 315 315 315 314 314 313 313 312 312 312 311 310 308 305 304 303 304 304 304 303 304 305
291 291 290 290 290 290 291 291 291 294 297 298 298 301 303 303 302 302 303 304 304 303 303 304 305 307 310 308 305 311 315 316 316 316 316 313 314 315 312 312 312 312 311 310 309 307 305 304 304 304 304 303 303 303
290 290 292 290 290 291 291 292 296 296 297 297 298 299 300 299 300 299 300 301 301 302 301 304 306 308 312 312 310 315 315 317 316 316 314 314 315 315 313 313 313 312 311 311 309 309 307 305 304 304 304 303 302 303
290 295 291 291 291 292 293 296 297 297 297 298 299 298 299 299 298 298 298 298 299 300 302 302 307 309 310 312 313 314 316 312 312 313 313 313 314 314 314 313 313 313 312 311 310 309 308 306 305 304 304 304 303 302
293 295 291 291 291 296 296 297 297 297 298 298 299 298 297 297 298 297 297 298 298 299 300 302 302 304 307 309 313 306 308 308 309 310 312 312 313 314 314 314 313 312 312 312 311 310 309 308 306 305 304 304 304 303
295 293 291 291 291 296 296 297 297 298 297 297 297 297 298 297 297 297 297 297 298 298 299 300 301 302 306 307 306 306 306 307 307 308 308 310 312 311 313 314 313 313 313 312 311 311 310 310 308 307 305 304 304 303
290 291 291 291 292 296 296 297 296 297 298 297 297 298 297 298 297 297 298 299 299 299 299 300 301 303 303 303 304 305 306 306 307 307 308 309 310 310 310 312 313 314 313 312 311 311 311 310 309 308 307 304 303 303
291 294 293 295 296 296 296 296 297 297 297 297 298 298 298 299 299 300 300 300 298 298 299 296 296 297 299 301 302 303 304 304 304 305 306 307 307 309 311 309 313 313 313 312 312 311 311 311 309 309 307 306 304 303
296 292 296 294 296 296 297 296 297 297 298 298 298 298 299 298 299 299 297 297 297 296 294 294 295 296 297 299 300 302 302 301 302 303 304 304 306 308 309 310 309 311 313 314 312 312 311 311 310 309 309 306 304 302
292 293 295 295 296 295 295 297 298 298 298 298 299 299 299 299 299 299 298 297 295 294 294 294 295 296 296 296 297 297 297 296 297 298 301 303 305 306 308 310 310 310 312 312 313 312 312 311 311 310 309 306 304 302
292 295 296 297 296 297 297 298 298 298 298 299 299 299 299 299 299 299 299 297 295 293 293 293 294 294 295 295 295 295 294 293 293 295 296 299 303 305 306 307 309 309 312 312 312 313 313 312 311 310 309 307 305 302
293 293 294 294 297 297 298 298 298 298 298 299 299 300 300 300 301 299 298 295 293 293 292 293 292 293 294 294 294 293 292 292 292 294 296 296 299 303 304 306 308 311 312 313 313 313 312 312 311 310 309 308 306 304
295 294 296 297 298 299 299 298 298 298 299 298 299 299 299 300 299 298 297 294 292 291 291 292 292 292 293 293 293 293 292 293 293 295 297 297 298 299 301 302 303 308 311 312 313 313 313 312 311 310 309 308 306 305
295 296 297 298 299 299 298 298 298 298 298 298 299 299 300 299 298 296 294 293 291 291 291 292 292 292 293 293 292 292 292 292 293 295 295 296 298 297 298 299 301 304 308 311 311 312 312 312 311 310 310 309 307 306
296 297 299 297 298 297 298 298 298 298 299 298 298 300 298 297 298 294 293 291 291 291 292 292 292 292 292 293 293 292 292 291 292 293 295 295 297 298 298 299 300 302 305 306 310 311 312 312 311 310 310 309 308 306
297 298 298 298 297 296 297 298 298 298 297 297 299 299 296 294 292 291 291 291 291 291 291 291 292 291 292 291 291 291 290 290 289 290 291 292 293 296 297 297 299 300 303 306 308 309 310 311 311 311 310 309 307 307
298 297 298 298 297 299 299 299 299 298 297 297 297 295 293 292 292 291 292 291 291 291 290 291 291 290 290 290 290 289 289 288 288 288 288 289 290 293 294 295 296 298 300 303 305 308 309 310 311 311 309 308 308 305
298 298 299 299 299 299 299 298 299 298 298 297 297 296 294 291 290 289 289 290 290 289 289 289 290 290 289 289 288 288 288 288 287 286 287 288 290 292 293 293 294 296 298 300 302 304 306 307 308 309 309 308 307 305
298 299 299 298 299 299 298 298 298 297 297 296 295 294 293 293 292 288 287 288 288 288 287 287 288 288 288 287 287 287 286 287 286 285 285 286 288 290 292 293 294 295 296 297 299 300 301 302 304 305 306 305 305 303
298 299 298 298 298 299 298 298 298 297 296 297 296 296 295 294 291 288 286 286 286 286 286 287 287 287 287 287 286 286 286 286 285 285 284 285 286 288 289 292 292 293 294 294 294 295 296 298 299 299 299 298 298 298

GFSWCAN_850_thetae_036.txt.gz
Theta_e
309 308 307 307 308 307 305 301 295 294 293 293 293 292 292 292 292 295 298 301 304 304 304 305 306 307 308 307 308 307 308 309 311 315 316 315 315 315 316 315 316 316 316 318 316 317 318 312 311 314 312 309 309 310
309 307 307 309 308 306 305 302 295 295 293 293 292 292 292 294 296 297 298 301 302 304 304 303 303 304 305 305 306 307 307 307 308 313 311 312 314 314 315 317 313 316 310 314 311 315 312 309 309 307 307 308 311 310
309 307 308 309 307 306 305 304 295 295 294 293 292 292 293 295 296 298 298 300 301 302 303 304 306 310 309 308 308 307 307 306 308 308 308 310 312 313 316 316 316 313 311 309 310 312 310 309 308 306 306 309 314 312
308 306 309 308 307 305 305 302 295 295 293 293 292 292 293 295 295 295 297 299 301 302 303 306 308 308 309 309 309 307 307 307 309 309 308 309 310 311 314 315 315 313 314 314 312 310 309 310 307 305 307 310 313 314
306 308 309 307 306 305 304 297 295 294 293 293 292 292 293 293 293 293 297 299 300 301 305 304 304 310 311 308 309 309 309 309 309 309 308 309 309 311 313 316 316 313 312 312 312 309 310 309 307 307 308 310 310 312
306 309 308 306 305 304 303 298 295 293 293 293 293 293 293 293 292 296 302 305 302 302 301 304 306 307 309 311 310 309 309 309 309 306 307 308 310 312 314 315 314 312 312 310 310 309 309 308 307 309 309 310 309 311
307 308 307 306 304 304 300 295 293 293 293 293 293 293 293 293 293 301 305 304 304 303 301 303 307 311 311 311 311 311 310 309 308 306 306 308 311 313 316 316 314 311 311 311 310 308 308 307 308 308 309 308 308 310
308 308 306 305 304 299 294 293 293 293 293 293 293 294 294 299 302 303 303 303 302 302 302 305 308 309 312 312 313 313 311 310 308 308 309 311 313 315 316 315 313 311 311 309 308 307 307 308 309 306 307 307 307 307
308 307 306 304 302 295 293 292 293 293 293 293 296 296 302 304 304 304 305 304 303 303 303 304 308 311 310 312 312 313 311 311 309 309 311 314 316 316 316 314 312 311 310 308 307 306 307 307 308 306 306 306 306 306
307 306 305 303 297 292 292 292 293 293 293 298 301 304 307 304 302 303 303 304 302 301 301 303 305 309 307 308 311 314 314 315 315 315 314 315 317 315 315 313 312 312 310 308 307 306 306 307 308 307 305 305 305 305
306 305 304 301 294 292 292 292 292 292 297 298 298 301 301 299 300 301 307 306 304 303 303 305 308 310 310 311 312 312 316 317 317 317 317 318 318 316 314 313 312 311 310 308 306 305 305 306 306 307 306 304 305 304
305 304 302 298 292 292 292 292 291 291 294 292 296 297 300 304 304 305 308 309 310 311 307 309 309 309 308 310 311 314 315 316 316 315 314 317 311 315 314 313 313 311 310 308 305 304 304 305 306 306 307 305 304 304
305 303 301 293 291 292 291 291 291 291 293 300 300 301 303 304 305 306 308 309 309 305 307 307 310 310 309 309 311 312 315 317 316 317 316 317 315 314 313 313 313 311 311 307 305 304 305 305 305 305 306 306 305 304
304 303 295 291 291 291 291 291 291 292 300 302 301 302 303 305 306 306 306 306 304 305 305 304 306 308 310 310 307 310 313 315 316 316 317 314 316 314 314 313 313 312 311 309 306 304 304 304 305 305 305 306 306 304
304 296 291 291 291 291 291 291 292 294 300 301 300 301 304 303 302 301 301 301 302 303 303 303 304 305 310 310 306 308 312 315 316 317 316 315 315 315 314 314 313 313 311 310 308 306 305 305 305 304 304 305 306 304
295 291 292 291 291 291 291 293 299 299 299 300 300 301 301 301 301 300 300 300 300 300 300 302 306 308 309 311 308 312 314 316 315 315 315 315 316 315 314 314 312 313 312 310 309 307 305 305 304 305 304 303 304 305
290 294 295 292 291 292 295 298 299 299 299 299 300 300 300 299 299 299 298 298 298 299 302 303 304 309 307 307 312 305 306 304 308 306 313 315 315 315 314 314 314 312 312 311 310 308 307 306 305 305 305 304 303 303
294 297 296 292 291 297 299 299 300 299 300 300 300 300 299 299 299 299 299 298 299 299 300 301 302 303 304 306 306 303 306 306 307 308 310 312 313 312 312 313 313 313 313 312 310 309 309 307 306 306 306 305 304 303
297 297 295 291 292 298 299 299 298 300 300 300 300 299 299 299 299 299 299 300 300 299 299 301 303 304 305 300 302 302 303 305 306 307 309 309 310 311 312 311 311 313 312 312 310 310 310 309 307 306 305 305 304 304
294 293 291 291 294 299 298 299 298 299 300 300 299 300 300 300 301 301 301 301 302 301 302 302 298 297 298 298 301 302 303 303 304 304 305 305 306 308 311 310 310 310 313 314 312 311 311 310 309 308 306 304 304 304
290 293 292 294 298 299 299 299 299 299 299 300 300 300 300 300 301 300 300 299 298 297 297 295 295 295 297 298 299 300 300 300 301 302 303 304 305 306 309 310 308 310 311 313 312 312 311 310 309 308 306 305 304 304
297 296 298 297 299 298 299 298 299 300 300 300 300 301 300 300 300 300 299 298 297 296 294 294 294 295 297 297 297 297 296 296 297 298 300 301 303 305 307 308 310 311 310 311 313 313 312 311 310 309 308 305 304 302
296 295 298 298 298 297 297 298 300 301 301 300 300 302 301 301 301 300 299 298 297 295 294 294 295 295 296 297 296 296 295 293 294 294 295 297 300 303 305 307 308 310 309 311 310 311 312 311 310 309 309 306 304 302
295 297 298 298 297 298 298 300 300 300 300 301 301 301 301 301 301 300 300 297 295 295 295 294 294 295 296 296 295 294 293 293 294 295 295 295 298 300 301 305 307 309 310 311 312 311 311 312 311 310 309 308 305 303
295 295 296 297 299 300 300 300 300 300 301 301 301 301 302 301 302 300 299 297 295 294 294 294 294 294 295 295 295 294 293 294 294 295 295 296 297 299 300 302 303 303 304 309 310 311 311 310 312 312 310 309 307 304
296 296 296 298 300 300 300 300 300 300 301 301 301 301 301 302 300 299 298 296 294 293 293 293 294 294 294 294 294 293 293 293 294 294 294 295 295 294 296 298 301 302 303 305 306 309 311 312 312 313 311 310 308 306
296 297 297 299 300 301 300 300 300 300 300 300 302 301 302 300 300 298 296 294 293 293 293 294 294 294 294 294 294 293 293 292 292 293 294 294 294 293 293 294 295 297 300 303 305 304 308 310 310 309 312 310 309 307
295 298 300 300 301 300 300 300 300 300 300 300 301 301 300 299 300 296 294 293 293 293 293 294 294 293 293 293 293 292 291 290 291 291 292 293 293 292 293 295 295 297 299 302 304 305 306 309 310 308 310 311 309 308
298 299 300 300 299 299 299 300 299 299 299 300 301 301 299 296 294 294 294 293 293 292 292 293 293 293 293 292 292 291 290 289 288 289 289 290 290 292 293 294 294 295 297 300 303 305 306 307 310 311 312 311 310 309
298 300 300 300 299 299 300 299 300 300 299 299 298 296 295 294 294 293 293 293 292 292 292 292 292 292 292 291 291 291 290 289 287 286 286 288 289 289 291 292 292 294 296 297 300 304 306 307 308 309 311 311 310 310
299 299 300 299 300 299 300 300 300 300 299 299 298 297 295 293 292 291 291 291 291 290 290 290 291 290 290 290 290 289 289 289 288 286 285 286 287 288 290 292 292 293 294 295 297 300 302 304 307 308 309 310 311 310
299 299 300 300 300 300 301 300 299 299 297 298 298 296 295 294 293 290 289 289 289 288 288 288 289 289 289 289 288 288 288 288 286 285 284 284 285 286 288 291 292 293 293 294 294 295 297 299 302 304 305 306 307 307
300 300 300 299 300 300 300 300 300 299 298 298 297 297 296 296 292 289 288 287 287 287 287 288 289 288 288 288 287 287 287 287 286 285 284 284 284 285 286 288 290 292 292 293 293 293 293 294 296 298 300 301 301 302

GFSWCAN_850_thetae_042.txt.gz
Theta_e
306 306 305 305 309 307 307 309 307 305 304 297 296 294 293 292 293 296 296 297 299 299 299 300 301 301 302 304 304 304 304 305 303 306 312 309 308 310 308 310 302 306 309 311 313 314 312 310 309 310 310 309 308 307
304 304 304 304 308 307 308 309 307 305 303 297 296 294 292 292 292 295 297 297 297 298 299 297 297 298 301 301 301 301 303 305 306 307 309 309 310 308 307 307 309 310 310 312 310 310 308 309 307 308 308 308 307 307
302 302 302 304 308 307 308 308 307 305 303 299 295 293 292 292 293 295 296 296 296 297 297 300 302 304 303 305 303 302 304 304 306 306 307 308 310 309 309 310 310 311 310 309 309 310 307 308 308 308 308 307 308 308
300 301 301 303 307 307 308 308 306 304 302 295 294 292 292 292 293 293 294 294 296 296 299 300 301 301 305 304 305 305 307 307 307 307 308 308 308 307 309 309 308 308 309 312 310 310 308 307 307 307 308 308 308 309
300 300 301 302 307 307 308 308 306 303 297 294 292 292 292 292 293 293 300 302 300 298 298 300 301 304 306 307 309 307 307 306 308 308 308 308 307 308 308 309 310 312 313 313 312 310 308 307 307 308 308 307 308 309
301 300 301 302 306 307 308 308 306 301 295 293 293 293 292 295 294 294 302 304 302 299 300 300 302 303 308 311 310 308 307 307 308 309 309 307 308 306 309 311 311 313 312 312 311 308 307 307 307 306 306 307 308 308
299 300 300 302 306 307 308 307 305 298 293 293 293 293 296 298 300 300 301 302 302 302 302 301 302 303 307 308 308 309 309 309 309 309 307 308 308 308 310 311 311 312 312 311 307 306 307 308 306 305 306 306 307 308
303 299 299 301 306 307 308 306 303 296 293 294 293 295 298 299 304 303 304 303 302 301 302 303 303 303 306 307 307 307 310 310 309 309 308 308 309 309 312 313 312 313 311 308 307 306 306 308 306 305 305 306 306 307
305 302 299 302 306 307 307 305 300 294 294 293 296 299 301 303 304 305 301 302 303 303 302 302 304 303 304 306 308 310 309 311 309 308 308 309 311 312 314 312 312 309 307 306 305 305 306 307 306 304 305 305 305 305
305 304 300 304 306 306 305 303 296 293 293 294 301 304 305 304 301 300 302 303 302 302 302 301 302 305 305 307 309 308 311 312 311 310 309 310 311 313 313 312 309 309 307 305 305 305 306 307 306 305 304 304 304 304
303 303 301 304 306 306 305 300 293 293 293 293 294 299 299 300 300 300 303 305 302 303 301 302 303 305 306 308 308 310 307 308 314 310 314 314 310 314 313 312 309 308 305 304 305 306 305 307 307 305 304 304 304 305
302 301 303 304 306 306 304 294 292 292 292 295 300 299 302 303 304 303 303 307 304 307 304 305 305 305 307 308 310 308 309 310 312 312 315 313 312 313 313 312 309 308 305 304 305 305 305 306 307 305 305 304 304 303
302 304 303 304 305 306 298 292 291 292 293 301 302 302 303 303 300 306 304 303 301 304 304 301 300 302 307 308 305 307 309 311 308 308 316 311 305 307 307 310 308 306 305 304 305 305 304 305 306 305 304 304 304 303
303 302 303 304 305 303 292 292 292 292 300 302 303 296 300 303 304 302 299 299 300 299 299 299 300 301 303 303 304 306 307 306 310 310 308 304 301 301 306 311 308 307 305 305 305 305 304 303 305 305 305 305 305 305
302 302 303 304 304 295 291 291 293 294 301 301 301 296 301 301 300 299 299 299 299 299 299 299 299 300 299 303 305 306 308 308 307 305 302 300 299 302 313 312 310 307 306 305 305 305 305 303 304 305 305 304 305 306
301 302 303 304 297 291 291 292 298 300 300 300 300 299 300 299 299 299 299 299 299 299 299 300 300 301 304 304 305 304 303 303 302 301 300 300 301 304 310 311 312 311 307 307 305 305 305 304 303 303 304 304 305 305
301 302 303 297 291 291 293 297 299 299 300 300 300 300 300 299 299 300 300 301 300 300 297 299 301 302 302 303 302 301 302 301 300 300 299 300 300 301 306 308 310 312 309 308 306 306 305 305 304 303 303 304 305 305
302 302 300 293 291 295 297 300 301 300 299 299 299 300 300 300 302 302 302 301 301 302 301 299 301 299 301 300 299 299 298 300 298 297 297 298 298 300 303 309 310 311 310 309 307 307 307 306 305 304 303 303 304 304
302 302 295 293 294 300 300 299 299 300 300 300 300 300 300 301 301 300 299 300 301 301 300 298 297 297 297 297 297 297 298 296 295 296 296 296 296 301 303 305 309 309 311 312 311 310 309 307 306 305 303 303 302 303
300 297 294 292 298 299 300 299 299 299 300 300 300 300 301 300 300 299 298 299 298 297 296 297 296 295 295 295 297 296 295 295 295 295 295 296 297 300 303 303 306 309 310 312 311 311 309 308 305 305 304 303 303 302
296 296 294 292 296 299 300 300 299 299 300 300 300 300 301 301 300 298 297 296 295 296 296 295 294 295 296 297 295 294 294 294 294 295 295 296 296 297 300 304 304 307 308 309 310 311 311 305 304 304 304 304 303 302
295 292 292 293 299 299 298 298 299 300 300 300 300 301 300 300 299 299 297 296 295 295 295 294 294 295 297 295 294 294 294 294 295 295 295 296 295 296 298 300 303 302 304 305 308 309 310 311 308 304 304 304 303 302
294 296 298 298 299 300 299 299 299 299 299 300 300 301 300 301 300 299 298 297 296 295 294 294 294 295 295 294 294 293 293 293 294 294 294 294 294 295 296 297 299 301 301 303 305 307 309 311 309 305 304 304 302 302
297 298 298 299 299 298 298 299 300 301 301 299 299 301 300 301 301 299 293 296 295 294 294 294 294 294 294 294 294 293 292 292 292 294 294 294 292 292 293 294 296 296 298 300 302 306 308 309 310 309 304 303 302 302
296 297 298 298 299 298 301 300 301 300 300 300 301 300 300 301 294 295 294 296 294 294 293 293 293 294 294 294 294 293 292 291 291 293 293 293 292 292 292 292 292 293 294 296 299 302 306 307 308 310 310 305 304 303
294 296 296 298 299 301 300 301 300 300 300 301 300 302 302 298 298 297 295 296 294 294 293 294 294 294 294 293 293 292 291 289 289 291 292 291 291 290 291 291 291 292 293 293 294 296 301 304 306 308 310 310 304 303
295 295 297 297 299 300 300 300 300 299 300 301 300 300 297 294 294 296 295 295 294 293 294 294 294 294 293 293 292 291 291 290 287 289 291 290 289 288 290 290 290 290 290 292 293 294 296 300 303 306 308 309 310 306
295 296 297 298 298 300 300 300 300 300 300 301 301 301 298 296 295 296 295 294 294 294 294 294 293 293 293 292 291 290 290 290 289 287 287 286 286 286 288 288 289 291 293 292 293 294 296 298 300 303 305 307 309 310
296 296 297 298 300 301 301 300 300 300 300 300 299 298 297 296 296 296 294 293 293 293 293 293 292 292 291 290 290 289 289 289 289 288 287 285 286 286 286 287 289 292 293 294 295 293 294 298 301 303 304 306 308 309
296 297 298 300 299 299 300 300 300 300 300 300 298 296 295 294 294 294 293 293 292 292 292 292 291 291 290 290 289 288 288 288 288 287 286 285 284 285 285 286 288 290 292 293 294 295 295 299 301 303 304 306 308 308
297 298 299 300 300 300 300 300 300 299 299 297 297 294 293 292 292 292 292 292 292 292 291 291 290 290 289 289 288 288 287 287 287 287 286 285 284 284 285 286 287 289 291 291 292 293 292 295 299 301 303 305 307 308
297 298 300 300 300 300 299 300 299 296 295 294 293 292 292 292 291 291 290 290 290 290 289 289 289 289 288 288 288 287 287 286 286 286 286 286 284 284 284 284 285 287 289 290 291 292 292 292 295 296 298 300 302 304
297 298 300 300 300 300 299 299 299 296 295 294 293 293 294 291 290 289 289 289 289 288 288 288 289 288 288 287 287 286 286 285 285 286 285 284 283 283 283 283 284 286 288 289 290 290 291 291 291 292 293 295 297 298

GFSWCAN_850_thetae_045.txt.gz
Theta_e
301 302 303 304 304 304 307 308 308 307 305 303 300 297 294 293 292 293 296 297 298 298 297 298 298 300 300 301 299 302 300 302 302 305 312 308 309 308 306 308 303 304 308 311 312 312 311 309 309 310 308 307 308 308
300 301 301 302 303 303 306 307 308 307 305 303 300 295 293 292 292 295 295 296 296 296 296 295 296 297 297 300 300 302 301 302 304 303 305 306 308 307 306 306 308 306 309 311 310 310 308 309 308 308 307 307 308 308
299 300 300 301 301 302 305 307 308 307 305 303 297 294 292 292 292 295 296 297 297 295 297 299 301 301 301 301 301 299 302 302 303 305 305 306 309 308 305 305 304 307 309 309 309 309 308 309 309 307 307 307 308 307
302 299 299 300 300 301 304 307 308 307 305 299 295 293 292 292 292 294 296 295 296 296 297 299 301 304 304 303 303 302 302 304 305 306 306 307 308 307 309 306 307 307 308 310 309 309 310 309 306 306 307 307 306 306
299 297 298 299 299 301 303 306 307 307 304 297 294 293 293 292 295 295 302 302 301 298 298 300 302 303 306 308 309 307 305 304 307 308 308 308 308 307 308 307 309 309 312 310 312 311 309 307 306 307 306 306 307 307
303 297 305 305 298 300 302 306 307 305 303 295 293 293 292 296 299 298 302 301 301 301 299 301 300 305 305 308 307 309 307 303 305 307 308 308 308 307 307 311 309 310 311 311 312 308 306 305 306 306 305 306 306 307
301 297 305 305 301 302 301 306 306 306 301 294 293 293 294 298 301 301 300 302 301 300 300 302 300 303 304 306 307 309 307 306 307 308 308 308 308 307 308 311 308 308 309 311 309 306 305 307 306 305 305 305 306 307
300 298 304 301 302 301 302 306 306 305 299 293 293 293 297 299 301 303 304 303 303 301 302 301 301 302 304 305 306 307 309 309 309 309 308 308 308 308 310 310 310 312 311 309 306 305 305 304 305 306 305 304 305 305
300 300 303 301 302 300 304 305 305 303 295 293 293 298 301 301 303 304 300 302 302 302 301 301 303 302 304 305 306 308 310 310 309 309 309 308 310 311 311 313 312 308 307 306 305 305 305 306 307 305 304 304 304 304
299 297 302 302 302 301 305 305 304 301 294 293 298 303 305 304 303 300 301 303 302 301 301 301 302 303 304 305 307 309 309 310 310 310 309 310 310 305 303 306 312 308 305 304 304 305 305 306 305 305 304 304 304 303
300 299 301 303 302 302 304 305 305 296 293 293 294 298 300 300 300 300 301 304 302 302 300 301 302 303 303 305 306 308 309 306 313 311 311 312 309 304 301 302 307 307 304 304 305 305 304 305 305 304 304 304 303 303
302 301 301 302 301 303 305 305 301 293 292 294 300 299 301 302 302 302 301 305 303 305 303 303 303 302 302 306 307 307 309 310 311 308 313 311 305 301 300 302 308 307 304 304 305 304 304 306 305 304 304 304 303 302
301 300 301 300 302 303 304 303 294 292 292 301 302 302 302 302 300 304 303 301 300 302 303 300 297 299 301 306 303 305 308 309 306 309 310 306 301 299 299 301 310 308 305 304 305 304 303 304 305 304 304 304 303 302
302 300 301 301 301 303 304 296 292 292 297 302 302 296 300 301 302 299 298 298 299 299 298 298 297 298 299 299 302 306 306 307 307 302 303 301 300 299 299 305 311 308 305 304 305 304 302 303 304 304 305 305 303 301
301 301 301 301 301 303 299 292 291 293 301 301 301 297 300 300 299 299 299 298 299 299 299 298 297 298 298 302 303 304 305 301 302 302 301 299 298 298 298 300 308 309 305 305 305 305 303 303 303 304 305 305 304 303
300 300 301 300 302 301 293 291 296 298 300 301 300 299 299 298 298 298 298 299 299 299 299 299 299 300 303 303 301 301 297 301 301 300 299 297 297 297 298 300 308 309 305 306 306 305 304 304 303 304 305 305 305 304
300 301 301 301 301 293 291 296 299 300 300 300 300 300 299 298 299 300 301 301 301 300 296 298 300 298 301 299 297 298 297 299 299 297 296 296 296 297 299 302 306 310 307 307 306 306 305 305 303 302 303 303 303 304
301 301 301 302 295 292 294 299 300 301 299 298 298 300 299 300 301 301 301 300 301 301 299 299 299 296 297 295 297 298 297 298 296 295 295 296 296 298 301 301 306 310 311 311 311 307 306 305 305 303 302 302 302 302
300 301 300 293 293 297 299 299 300 300 300 300 300 300 301 300 300 299 299 299 300 300 299 296 295 296 297 297 296 296 296 295 295 295 295 296 297 297 300 302 306 308 309 311 311 310 310 308 306 304 303 302 302 302
300 300 295 292 298 300 300 300 299 299 300 300 299 301 300 300 299 297 297 298 298 296 295 295 295 295 295 295 296 294 294 294 295 295 295 296 296 296 298 301 301 305 307 310 311 310 307 307 306 305 303 302 301 301
299 296 295 293 298 299 299 299 299 298 300 299 299 301 299 298 298 297 296 295 295 295 294 295 294 295 296 295 294 294 294 294 295 295 294 294 295 296 297 299 300 302 303 305 307 310 309 308 305 305 304 302 301 301
295 293 291 293 297 298 299 299 299 299 299 299 299 301 300 299 298 298 296 295 295 295 295 294 294 295 295 294 294 293 293 293 294 294 294 294 294 294 295 295 296 296 299 301 303 305 307 309 308 304 304 303 302 301
294 292 293 298 299 299 299 298 299 299 299 299 299 299 298 299 299 298 296 295 295 294 294 294 294 295 294 294 293 293 292 292 293 294 294 294 292 292 294 294 294 294 294 297 301 304 305 307 306 304 303 303 302 302
295 298 298 299 299 298 298 298 299 300 300 297 298 300 299 299 299 297 292 296 295 294 294 294 294 294 294 293 293 292 290 290 291 293 293 292 291 292 292 292 292 292 292 293 295 299 304 306 307 306 303 303 303 302
297 297 298 297 299 298 300 300 299 299 300 299 300 299 299 300 293 294 294 295 294 294 294 293 293 294 294 293 293 291 290 288 289 292 292 291 290 289 291 291 290 290 291 293 294 295 298 301 304 306 307 304 302 302
293 295 296 298 299 300 300 300 300 299 300 300 300 300 301 296 298 298 294 295 294 294 293 293 293 294 293 293 292 291 290 289 287 290 290 290 288 287 289 289 289 290 291 291 292 293 294 296 301 304 306 306 304 302
293 295 296 297 299 300 299 300 300 298 299 300 299 298 296 296 296 296 296 295 294 294 293 294 294 294 293 292 291 290 290 289 289 287 286 286 286 286 287 288 288 289 292 292 293 293 293 294 297 300 304 306 306 305
295 296 297 297 297 298 299 298 299 300 299 300 300 300 299 297 296 296 295 295 294 294 294 293 293 293 293 291 290 290 290 289 289 288 286 286 286 286 286 287 288 290 291 292 292 292 293 294 295 297 299 303 306 307
295 295 296 297 298 299 300 299 300 300 300 300 299 298 296 296 296 296 295 294 294 293 292 293 292 292 291 290 289 289 289 288 289 288 288 287 286 286 286 286 287 289 290 292 292 292 294 295 298 299 300 302 304 306
294 296 297 298 299 299 300 300 300 299 299 300 298 295 294 294 294 294 293 293 293 293 292 292 291 291 290 289 289 288 288 288 288 287 287 286 285 284 285 285 286 287 289 290 292 292 293 295 298 299 301 302 303 305
294 296 298 299 300 300 300 300 300 300 299 296 295 293 292 292 293 293 293 292 292 292 292 291 290 290 290 289 289 288 287 287 286 286 286 286 285 284 284 284 285 286 288 289 291 291 292 293 295 296 298 300 302 304
296 297 299 300 300 299 299 299 296 294 293 292 291 292 292 292 290 290 290 291 291 291 291 290 290 289 288 288 288 287 287 286 286 286 286 286 285 284 283 283 284 285 287 288 289 290 290 291 292 292 294 295 297 300
296 297 298 300 299 299 299 297 296 294 293 292 292 292 291 290 289 289 289 289 289 290 289 289 288 288 288 288 287 286 286 285 285 285 285 285 284 283 282 283 283 284 285 286 288 288 289 289 290 290 291 292 293 294